Time,TemperatureF,DewpointF,PressureIn,WindDirection,WindDirectionDegrees,WindSpeedMPH,WindSpeedGustMPH,Humidity,HourlyPrecipIn,Conditions,Clouds,dailyrainin,SoftwareType,DateUTC
2013-03-23 00:03:00,39.0,12.0,-100.00,NW,312,3.0,4.0,33,0.00,,,0.00,,2013-03-23 04:03:00,
2013-03-23 00:13:00,39.0,12.0,-100.00,NW,312,3.0,4.0,33,0.00,,,0.00,,2013-03-23 04:13:00,
2013-03-23 00:23:00,37.0,13.0,-100.00,NW,316,2.0,4.0,37,0.00,,,0.00,,2013-03-23 04:23:00,
2013-03-23 00:33:00,37.0,13.0,-100.00,NW,316,2.0,4.0,37,0.00,,,0.00,,2013-03-23 04:33:00,
2013-03-23 00:43:00,36.0,13.0,-100.00,NW,311,1.0,3.0,38,0.00,,,0.00,,2013-03-23 04:43:00,
2013-03-23 00:53:00,36.0,13.0,-100.00,NW,311,1.0,3.0,38,0.00,,,0.00,,2013-03-23 04:53:00,
2013-03-23 01:02:00,34.0,14.0,-100.00,North,353,2.0,3.0,42,0.00,,,0.00,,2013-03-23 05:02:00,
2013-03-23 01:12:00,34.0,14.0,-100.00,North,353,2.0,3.0,42,0.00,,,0.00,,2013-03-23 05:12:00,
2013-03-23 01:22:00,34.0,14.0,-100.00,North,353,2.0,3.0,42,0.00,,,0.00,,2013-03-23 05:22:00,
2013-03-23 01:33:00,35.0,13.0,-100.00,NNE,17,1.0,2.0,41,0.00,,,0.00,,2013-03-23 05:33:00,
2013-03-23 01:42:00,33.0,14.0,-100.00,NW,319,2.0,4.0,43,0.00,,,0.00,,2013-03-23 05:42:00,
2013-03-23 01:52:00,35.0,12.0,-100.00,NNE,14,0.0,1.0,39,0.00,,,0.00,,2013-03-23 05:52:00,
2013-03-23 02:02:00,35.0,12.0,-100.00,NNE,14,0.0,1.0,39,0.00,,,0.00,,2013-03-23 06:02:00,
2013-03-23 02:12:00,35.0,12.0,-100.00,NNE,14,0.0,1.0,39,0.00,,,0.00,,2013-03-23 06:12:00,
2013-03-23 02:22:00,35.0,12.0,-100.00,NNE,14,0.0,1.0,39,0.00,,,0.00,,2013-03-23 06:22:00,
2013-03-23 02:32:00,33.0,14.0,-100.00,WSW,240,1.0,2.0,44,0.00,,,0.00,,2013-03-23 06:32:00,
2013-03-23 02:42:00,30.0,15.0,-100.00,NW,320,1.0,2.0,53,0.00,,,0.00,,2013-03-23 06:42:00,
2013-03-23 02:52:00,30.0,15.0,-100.00,NW,320,1.0,2.0,53,0.00,,,0.00,,2013-03-23 06:52:00,
2013-03-23 03:03:00,28.0,15.0,-100.00,NNW,335,1.0,2.0,59,0.00,,,0.00,,2013-03-23 07:03:00,
2013-03-23 03:12:00,28.0,15.0,-100.00,NNW,335,1.0,2.0,59,0.00,,,0.00,,2013-03-23 07:12:00,
2013-03-23 03:22:00,28.0,15.0,-100.00,North,7,1.0,2.0,58,0.00,,,0.00,,2013-03-23 07:22:00,
2013-03-23 03:33:00,28.0,15.0,-100.00,North,7,1.0,2.0,58,0.00,,,0.00,,2013-03-23 07:33:00,
2013-03-23 03:42:00,27.0,15.0,-100.00,NNW,335,0.0,1.0,59,0.00,,,0.00,,2013-03-23 07:42:00,
2013-03-23 03:52:00,28.0,15.0,-100.00,WNW,302,1.0,1.0,60,0.00,,,0.00,,2013-03-23 07:52:00,
2013-03-23 04:03:00,28.0,15.0,-100.00,WNW,302,1.0,1.0,60,0.00,,,0.00,,2013-03-23 08:03:00,
2013-03-23 04:13:00,28.0,15.0,-100.00,WNW,302,1.0,1.0,60,0.00,,,0.00,,2013-03-23 08:13:00,
2013-03-23 04:22:00,28.0,15.0,-100.00,WNW,302,1.0,1.0,60,0.00,,,0.00,,2013-03-23 08:22:00,
2013-03-23 04:32:00,28.0,15.0,-100.00,NNW,344,1.0,2.0,58,0.00,,,0.00,,2013-03-23 08:32:00,
2013-03-23 04:42:00,28.0,16.0,-100.00,NW,323,0.0,1.0,59,0.00,,,0.00,,2013-03-23 08:42:00,
2013-03-23 04:52:00,28.0,16.0,-100.00,NW,323,0.0,1.0,59,0.00,,,0.00,,2013-03-23 08:52:00,
2013-03-23 05:02:00,29.0,18.0,-100.00,NNW,347,0.0,0.0,63,0.00,,,0.00,,2013-03-23 09:02:00,
2013-03-23 05:12:00,29.0,18.0,-100.00,NNW,347,0.0,0.0,63,0.00,,,0.00,,2013-03-23 09:12:00,
2013-03-23 05:22:00,30.0,18.0,-100.00,NNW,332,0.0,1.0,61,0.00,,,0.00,,2013-03-23 09:22:00,
2013-03-23 05:33:00,29.0,20.0,-100.00,NW,312,0.0,1.0,68,0.00,,,0.00,,2013-03-23 09:33:00,
2013-03-23 05:43:00,29.0,20.0,-100.00,NW,312,0.0,1.0,68,0.00,,,0.00,,2013-03-23 09:43:00,
2013-03-23 05:53:00,29.0,20.0,-100.00,NW,312,0.0,1.0,68,0.00,,,0.00,,2013-03-23 09:53:00,
2013-03-23 06:03:00,30.0,20.0,-100.00,North,357,0.0,1.0,65,0.00,,,0.00,,2013-03-23 10:03:00,
2013-03-23 06:13:00,30.0,20.0,-100.00,North,357,0.0,1.0,65,0.00,,,0.00,,2013-03-23 10:13:00,
2013-03-23 06:23:00,30.0,19.0,-100.00,NNW,346,0.0,0.0,63,0.00,,,0.00,,2013-03-23 10:23:00,
2013-03-23 06:34:00,31.0,19.0,-100.00,NE,41,2.0,3.0,61,0.00,,,0.00,,2013-03-23 10:34:00,
2013-03-23 06:43:00,31.0,19.0,-100.00,NE,41,2.0,3.0,61,0.00,,,0.00,,2013-03-23 10:43:00,
2013-03-23 06:53:00,31.0,19.0,-100.00,NE,41,2.0,3.0,61,0.00,,,0.00,,2013-03-23 10:53:00,
2013-03-23 07:03:00,31.0,21.0,-100.00,North,1,2.0,2.0,66,0.00,,,0.00,,2013-03-23 11:03:00,
2013-03-23 07:12:00,31.0,21.0,-100.00,North,1,2.0,2.0,66,0.00,,,0.00,,2013-03-23 11:12:00,
2013-03-23 07:22:00,30.0,21.0,-100.00,NNE,25,2.0,2.0,68,0.00,,,0.00,,2013-03-23 11:22:00,
2013-03-23 07:32:00,30.0,21.0,-100.00,NNE,25,2.0,2.0,68,0.00,,,0.00,,2013-03-23 11:32:00,
2013-03-23 07:42:00,30.0,20.0,-100.00,NE,48,0.0,0.0,65,0.00,,,0.00,,2013-03-23 11:42:00,
2013-03-23 07:52:00,30.0,20.0,-100.00,NE,48,0.0,0.0,65,0.00,,,0.00,,2013-03-23 11:52:00,
2013-03-23 08:02:00,30.0,21.0,-100.00,NNW,329,1.0,2.0,68,0.00,,,0.00,,2013-03-23 12:02:00,
2013-03-23 08:13:00,30.0,21.0,-100.00,NNW,329,1.0,2.0,68,0.00,,,0.00,,2013-03-23 12:13:00,
2013-03-23 08:22:00,30.0,21.0,-100.00,NNW,329,1.0,2.0,68,0.00,,,0.00,,2013-03-23 12:22:00,
2013-03-23 08:33:00,31.0,22.0,-100.00,SSW,203,1.0,2.0,70,0.00,,,0.00,,2013-03-23 12:33:00,
2013-03-23 08:43:00,31.0,22.0,-100.00,North,350,2.0,2.0,67,0.00,,,0.00,,2013-03-23 12:43:00,
2013-03-23 08:52:00,31.0,22.0,-100.00,North,350,2.0,2.0,67,0.00,,,0.00,,2013-03-23 12:52:00,
2013-03-23 09:03:00,31.0,22.0,-100.00,NNW,330,3.0,4.0,66,0.00,,,0.00,,2013-03-23 13:03:00,
2013-03-23 09:12:00,31.0,22.0,-100.00,NNW,330,3.0,4.0,66,0.00,,,0.00,,2013-03-23 13:12:00,
2013-03-23 09:23:00,32.0,21.0,-100.00,NNW,330,0.0,2.0,62,0.00,,,0.00,,2013-03-23 13:23:00,
2013-03-23 09:33:00,32.0,21.0,-100.00,NNW,330,0.0,2.0,62,0.00,,,0.00,,2013-03-23 13:33:00,
2013-03-23 09:43:00,32.0,21.0,-100.00,NNW,330,0.0,2.0,62,0.00,,,0.00,,2013-03-23 13:43:00,
2013-03-23 09:53:00,33.0,21.0,-100.00,North,1,3.0,3.0,62,0.00,,,0.00,,2013-03-23 13:53:00,
2013-03-23 10:03:00,34.0,20.0,-100.00,NNE,25,2.0,3.0,58,0.00,,,0.00,,2013-03-23 14:03:00,
2013-03-23 10:12:00,34.0,20.0,-100.00,NNE,25,2.0,3.0,58,0.00,,,0.00,,2013-03-23 14:12:00,
2013-03-23 10:23:00,34.0,20.0,-100.00,NNE,25,2.0,3.0,58,0.00,,,0.00,,2013-03-23 14:23:00,
2013-03-23 10:33:00,35.0,18.0,-100.00,NNE,23,3.0,4.0,51,0.00,,,0.00,,2013-03-23 14:33:00,
2013-03-23 10:43:00,35.0,20.0,-100.00,ENE,71,2.0,3.0,55,0.00,,,0.00,,2013-03-23 14:43:00,
2013-03-23 10:52:00,35.0,20.0,-100.00,ENE,71,2.0,3.0,55,0.00,,,0.00,,2013-03-23 14:52:00,
2013-03-23 11:04:00,36.0,19.0,-100.00,NE,55,2.0,3.0,51,0.00,,,0.00,,2013-03-23 15:04:00,
2013-03-23 11:13:00,36.0,19.0,-100.00,NE,55,2.0,3.0,51,0.00,,,0.00,,2013-03-23 15:13:00,
2013-03-23 11:22:00,37.0,18.0,-100.00,NE,55,3.0,4.0,46,0.00,,,0.00,,2013-03-23 15:22:00,
2013-03-23 11:33:00,37.0,18.0,-100.00,NE,55,3.0,4.0,46,0.00,,,0.00,,2013-03-23 15:33:00,
2013-03-23 11:44:00,37.0,18.0,-100.00,NE,55,3.0,4.0,46,0.00,,,0.00,,2013-03-23 15:44:00,
2013-03-23 11:53:00,40.0,16.0,-100.00,SE,136,2.0,3.0,37,0.00,,,0.00,,2013-03-23 15:53:00,
2013-03-23 12:03:00,41.0,14.0,-100.00,NNE,17,4.0,6.0,33,0.00,,,0.00,,2013-03-23 16:03:00,
2013-03-23 12:13:00,41.0,14.0,-100.00,NNE,17,4.0,6.0,33,0.00,,,0.00,,2013-03-23 16:13:00,
2013-03-23 12:23:00,43.0,14.0,-100.00,North,350,3.0,5.0,31,0.00,,,0.00,,2013-03-23 16:23:00,
2013-03-23 12:33:00,43.0,14.0,-100.00,North,350,3.0,5.0,31,0.00,,,0.00,,2013-03-23 16:33:00,
2013-03-23 12:43:00,43.0,14.0,-100.00,NW,316,4.0,6.0,30,0.00,,,0.00,,2013-03-23 16:43:00,
2013-03-23 12:54:00,43.0,14.0,-100.00,NW,316,4.0,6.0,30,0.00,,,0.00,,2013-03-23 16:54:00,
2013-03-23 13:03:00,45.0,15.0,-100.00,East,99,4.0,6.0,30,0.00,,,0.00,,2013-03-23 17:03:00,
2013-03-23 13:12:00,45.0,15.0,-100.00,East,99,4.0,6.0,30,0.00,,,0.00,,2013-03-23 17:12:00,
2013-03-23 13:23:00,45.0,15.0,-100.00,East,99,4.0,6.0,30,0.00,,,0.00,,2013-03-23 17:23:00,
2013-03-23 13:33:00,46.0,14.0,-100.00,SE,133,3.0,5.0,26,0.00,,,0.00,,2013-03-23 17:33:00,
2013-03-23 13:43:00,46.0,14.0,-100.00,SE,133,3.0,5.0,26,0.00,,,0.00,,2013-03-23 17:43:00,
2013-03-23 13:52:00,49.0,13.0,-100.00,North,357,2.0,4.0,23,0.00,,,0.00,,2013-03-23 17:52:00,
2013-03-23 14:03:00,48.0,14.0,-100.00,WNW,298,5.0,8.0,24,0.00,,,0.00,,2013-03-23 18:03:00,
2013-03-23 14:12:00,48.0,14.0,-100.00,WNW,298,5.0,8.0,24,0.00,,,0.00,,2013-03-23 18:12:00,
2013-03-23 14:23:00,48.0,14.0,-100.00,WNW,298,5.0,8.0,24,0.00,,,0.00,,2013-03-23 18:23:00,
2013-03-23 14:32:00,49.0,11.0,-100.00,NNW,336,10.0,12.0,22,0.00,,,0.00,,2013-03-23 18:32:00,
2013-03-23 14:43:00,50.0,14.0,-100.00,South,172,1.0,2.0,23,0.00,,,0.00,,2013-03-23 18:43:00,
2013-03-23 14:52:00,50.0,14.0,-100.00,South,172,1.0,2.0,23,0.00,,,0.00,,2013-03-23 18:52:00,
2013-03-23 15:03:00,50.0,14.0,-100.00,NNW,330,4.0,6.0,23,0.00,,,0.00,,2013-03-23 19:03:00,
2013-03-23 15:13:00,50.0,14.0,-100.00,NNW,330,4.0,6.0,23,0.00,,,0.00,,2013-03-23 19:13:00,
2013-03-23 15:23:00,50.0,14.0,-100.00,NNW,330,4.0,6.0,23,0.00,,,0.00,,2013-03-23 19:23:00,
2013-03-23 15:33:00,50.0,12.0,-100.00,NNW,343,6.0,8.0,22,0.00,,,0.00,,2013-03-23 19:33:00,
2013-03-23 15:43:00,50.0,12.0,-100.00,NNW,343,6.0,8.0,22,0.00,,,0.00,,2013-03-23 19:43:00,
2013-03-23 15:52:00,51.0,14.0,-100.00,NNW,329,7.0,11.0,22,0.00,,,0.00,,2013-03-23 19:52:00,
2013-03-23 16:03:00,52.0,16.0,-100.00,NW,323,8.0,10.0,23,0.00,,,0.00,,2013-03-23 20:03:00,
2013-03-23 16:13:00,52.0,16.0,-100.00,NW,323,8.0,10.0,23,0.00,,,0.00,,2013-03-23 20:13:00,
2013-03-23 16:23:00,52.0,16.0,-100.00,NW,323,8.0,10.0,23,0.00,,,0.00,,2013-03-23 20:23:00,
2013-03-23 16:53:00,52.0,17.0,-100.00,NW,319,5.0,6.0,25,0.00,,,0.00,,2013-03-23 20:53:00,
2013-03-23 17:03:00,53.0,19.0,-100.00,NNW,344,6.0,9.0,26,0.00,,,0.00,,2013-03-23 21:03:00,
2013-03-23 17:12:00,53.0,19.0,-100.00,NNW,344,6.0,9.0,26,0.00,,,0.00,,2013-03-23 21:12:00,
2013-03-23 17:22:00,53.0,18.0,-100.00,NW,319,4.0,6.0,25,0.00,,,0.00,,2013-03-23 21:22:00,
2013-03-23 17:33:00,53.0,18.0,-100.00,NW,319,4.0,6.0,25,0.00,,,0.00,,2013-03-23 21:33:00,
2013-03-23 17:43:00,53.0,18.0,-100.00,NW,319,4.0,6.0,25,0.00,,,0.00,,2013-03-23 21:43:00,
2013-03-23 17:54:00,53.0,19.0,-100.00,NW,305,6.0,9.0,26,0.00,,,0.00,,2013-03-23 21:54:00,
2013-03-23 18:03:00,53.0,18.0,-100.00,NW,306,5.0,8.0,25,0.00,,,0.00,,2013-03-23 22:03:00,
2013-03-23 18:13:00,53.0,18.0,-100.00,NW,306,5.0,8.0,25,0.00,,,0.00,,2013-03-23 22:13:00,
2013-03-23 18:23:00,53.0,18.0,-100.00,NW,306,5.0,8.0,25,0.00,,,0.00,,2013-03-23 22:23:00,
2013-03-23 18:33:00,54.0,19.0,-100.00,WSW,243,3.0,4.0,24,0.00,,,0.00,,2013-03-23 22:33:00,
2013-03-23 18:42:00,54.0,18.0,-100.00,NW,325,4.0,5.0,24,0.00,,,0.00,,2013-03-23 22:42:00,
2013-03-23 18:53:00,54.0,18.0,-100.00,NW,325,4.0,5.0,24,0.00,,,0.00,,2013-03-23 22:53:00,
2013-03-23 19:03:00,53.0,18.0,-100.00,NW,306,5.0,8.0,24,0.00,,,0.00,,2013-03-23 23:03:00,
2013-03-23 19:13:00,53.0,18.0,-100.00,NW,306,5.0,8.0,24,0.00,,,0.00,,2013-03-23 23:13:00,
2013-03-23 19:23:00,53.0,19.0,-100.00,NW,311,3.0,4.0,26,0.00,,,0.00,,2013-03-23 23:23:00,
2013-03-23 19:33:00,53.0,19.0,-100.00,NW,311,3.0,4.0,26,0.00,,,0.00,,2013-03-23 23:33:00,
2013-03-23 19:43:00,53.0,19.0,-100.00,NW,311,3.0,4.0,26,0.00,,,0.00,,2013-03-23 23:43:00,
2013-03-23 19:53:00,51.0,18.0,-100.00,WNW,301,3.0,6.0,27,0.00,,,0.00,,2013-03-23 23:53:00,
2013-03-23 20:02:00,50.0,19.0,-100.00,WNW,298,1.0,2.0,29,0.00,,,0.00,,2013-03-24 00:02:00,
2013-03-23 20:13:00,50.0,19.0,-100.00,WNW,298,1.0,2.0,29,0.00,,,0.00,,2013-03-24 00:13:00,
2013-03-23 20:23:00,49.0,18.0,-100.00,WNW,294,3.0,4.0,29,0.00,,,0.00,,2013-03-24 00:23:00,
2013-03-23 20:33:00,49.0,18.0,-100.00,WNW,294,3.0,4.0,29,0.00,,,0.00,,2013-03-24 00:33:00,
2013-03-23 20:42:00,47.0,20.0,-100.00,NW,320,2.0,3.0,35,0.00,,,0.00,,2013-03-24 00:42:00,
2013-03-23 20:53:00,47.0,20.0,-100.00,NW,320,2.0,3.0,35,0.00,,,0.00,,2013-03-24 00:53:00,
2013-03-23 21:02:00,45.0,20.0,-100.00,NNW,342,1.0,2.0,36,0.00,,,0.00,,2013-03-24 01:02:00,
2013-03-23 21:12:00,45.0,20.0,-100.00,NNW,342,1.0,2.0,36,0.00,,,0.00,,2013-03-24 01:12:00,
2013-03-23 21:22:00,45.0,20.0,-100.00,NNW,342,1.0,2.0,36,0.00,,,0.00,,2013-03-24 01:22:00,
2013-03-23 21:43:00,45.0,20.0,-100.00,SW,230,0.0,1.0,37,0.00,,,0.00,,2013-03-24 01:43:00,
2013-03-23 21:53:00,45.0,20.0,-100.00,SW,230,0.0,1.0,37,0.00,,,0.00,,2013-03-24 01:53:00,
2013-03-23 22:03:00,44.0,21.0,-100.00,NW,312,2.0,2.0,40,0.00,,,0.00,,2013-03-24 02:03:00,
2013-03-23 22:12:00,44.0,21.0,-100.00,NW,312,2.0,2.0,40,0.00,,,0.00,,2013-03-24 02:12:00,
2013-03-23 22:22:00,44.0,21.0,-100.00,NW,312,2.0,2.0,40,0.00,,,0.00,,2013-03-24 02:22:00,
2013-03-23 22:32:00,41.0,23.0,-100.00,NE,41,0.0,1.0,47,0.00,,,0.00,,2013-03-24 02:32:00,
2013-03-23 22:42:00,43.0,21.0,-100.00,SSE,165,2.0,3.0,41,0.00,,,0.00,,2013-03-24 02:42:00,
2013-03-23 22:52:00,41.0,23.0,-100.00,NNE,31,1.0,1.0,48,0.00,,,0.00,,2013-03-24 02:52:00,
2013-03-23 23:03:00,41.0,23.0,-100.00,NNE,31,1.0,1.0,48,0.00,,,0.00,,2013-03-24 03:03:00,
2013-03-23 23:13:00,41.0,23.0,-100.00,NNE,31,1.0,1.0,48,0.00,,,0.00,,2013-03-24 03:13:00,
2013-03-23 23:23:00,41.0,23.0,-100.00,NNE,31,1.0,1.0,48,0.00,,,0.00,,2013-03-24 03:23:00,
2013-03-23 23:33:00,40.0,23.0,-100.00,NNW,342,2.0,3.0,50,0.00,,,0.00,,2013-03-24 03:33:00,
2013-03-23 23:42:00,39.0,22.0,-100.00,NNE,25,1.0,2.0,51,0.00,,,0.00,,2013-03-24 03:42:00,
2013-03-23 23:53:00,38.0,23.0,-100.00,NNW,347,1.0,2.0,55,0.00,,,0.00,,2013-03-24 03:53:00,